Simultaneous Nadir Overpasses (SNOs) Predictions

Prediction of SNOs between FY3D and AQUA Satellite Orbit:

Table of predicted SNOs for the next 14.0 days since TLE Epoch: 5/23/2020
Index Date (FY3D) Time (FY3D) Lat,Lon (FY3D) SZA (FY3D ) Date (AQUA) Time (AQUA) Lat,Lon (AQUA) SZA (AQUA ) Distance(km) Time Diff (sec)
1 05/25/2020 08:15:43 66.99, -80.24 86.07 05/25/2020 08:15:47 66.98, -80.28 86.08 1.77 4
2 05/25/2020 09:05:30 -70.14, 91.25 97.24 05/25/2020 09:04:19 -70.13, 91.24 97.17 0.58 71
3 05/28/2020 00:32:14 66.58, 35.21 86.08 05/28/2020 00:32:23 66.58, 35.17 86.08 1.83 9
4 05/28/2020 01:21:59 -69.85,-153.27 97.36 05/28/2020 01:20:53 -69.85,-153.27 97.29 0.39 66
5 05/30/2020 16:48:42 66.28, 150.79 86.02 05/30/2020 16:48:56 66.27, 150.74 86.03 2.16 14
6 05/30/2020 17:38:26 -69.62, -37.70 97.48 05/30/2020 17:37:25 -69.62, -37.71 97.41 0.58 61
7 06/02/2020 09:05:31 64.88, -94.74 87.15 06/02/2020 09:05:49 64.89, -94.71 87.11 1.96 18
8 06/02/2020 09:54:53 -69.44, 77.95 97.61 06/02/2020 09:53:57 -69.43, 77.92 97.54 1.13 56
9 06/05/2020 01:21:59 64.63, 20.92 87.13 06/05/2020 01:22:22 64.63, 20.94 87.10 1.07 23




NCC Satellite Simultaneous Nadir Overpasses (SNOs) Prediction Service
